Location: Derby
(52.9213°N, 1.4761°W)
Time: 17:03:43
(UTC+01:00)

A-11 Canister half - Pass Details

Date: 25 May 2025
Orbit: 1524 x 1684 km, 47.3° (Epoch: 14 June)

Event Time Altitude Azimuth Distance (km) Brightness Sun altitude
Rises 00:32:12 0° 284° (WNW) 4,771 11.9 -15.8°
Reaches altitude 10° 00:35:34 10° 276° (W) 3,807 11.2 -15.9°
Maximum altitude 00:44:02 36° 215° (SW) 2,378 9.6 -16.0°
Enters shadow 00:49:48 20° 165° (SSE) 3,155 10.0 -16.1°
